This is the latest recevied weather packets stored in our database for station/object IU2EVW-13. If no packets are shown the sender has not sent any weather packets the latest 10 day(s).
| Time | Temp. | Humidity | Pressure | Rain* | Wind** | Luminosity | Snow |
|---|---|---|---|---|---|---|---|
| 1778064088 | 10.56° C | 86% | 1011.5 hPa | - | - | - | - |
| 1778062886 | 9.44° C | 88% | 1012 hPa | - | - | - | - |
| 1778061685 | 10.56° C | 86% | 1011.5 hPa | - | - | - | - |
| 1778060484 | 10° C | 85% | 1011.2 hPa | - | - | - | - |
| 1778059282 | 10° C | 84% | 1010.9 hPa | - | - | - | - |
| 1778058081 | 10.56° C | 78% | 1010.5 hPa | - | - | - | - |
| 1778056879 | 10.56° C | 84% | 1010.9 hPa | - | - | - | - |
| 1778055678 | 10° C | 84% | 1011.3 hPa | - | - | - | - |
| 1778054477 | 10.56° C | 82% | 1011.3 hPa | - | - | - | - |
| 1778053275 | 10° C | 84% | 1011.4 hPa | - | - | - | - |
| 1778052074 | 10.56° C | 77% | 1011.2 hPa | - | - | - | - |
| 1778050873 | 10° C | 82% | 1011.4 hPa | - | - | - | - |
| 1778049671 | 10° C | 83% | 1011.4 hPa | - | - | - | - |
| 1778048470 | 10° C | 81% | 1011.5 hPa | - | - | - | - |
| 1778047269 | 9.44° C | 85% | 1011.6 hPa | - | - | - | - |
| 1778046067 | 9.44° C | 88% | 1011.7 hPa | - | - | - | - |
| 1778044866 | 8.89° C | 88% | 1011.8 hPa | - | - | - | - |
| 1778043664 | 8.89° C | 87% | 1011.8 hPa | - | - | - | - |
| 1778042463 | 9.44° C | 87% | 1011.8 hPa | - | - | - | - |
| 1778041262 | 9.44° C | 86% | 1011.7 hPa | - | - | - | - |
| 1778040060 | 9.44° C | 86% | 1011.8 hPa | - | - | - | - |
| 1778038859 | 9.44° C | 86% | 1012 hPa | - | - | - | - |
| 1778037658 | 8.89° C | 87% | 1012.1 hPa | - | - | - | - |
| 1778036456 | 8.89° C | 87% | 1012.3 hPa | - | - | - | - |
| 1778035255 | 9.44° C | 85% | 1012.7 hPa | - | - | - | - |
* Rain since midnight (hover to see other rain measurements)
** Current wind speed in m/s (hover to see current wind gust speed)